Location: *
(45.8589°N, 4.7139°E)
Time: 00:27:40
(UTC+00:00)

USA 234 - Pass Details

Date: 09 April 2020
Orbit: 1102 x 1106 km, 123.0° (Epoch: 14 May)

Event Time Altitude Azimuth Distance (km) Brightness Sun altitude
Rises 23:18:03 0° 57° (ENE) 3,924 6.4 -35.8°
Reaches altitude 10° 23:20:41 10° 50° (NE) 2,965 5.8 -35.9°
Maximum altitude 23:26:40 40° 344° (NNW) 1,574 4.4 -36.0°
Drops below altitude 10° 23:32:39 10° 278° (W) 2,963 5.6 -36.1°
Sets 23:35:17 0° 271° (W) 3,920 6.2 -36.1°
